TimeCST,TemperatureF,Dew PointF,Humidity,Sea Level PressureIn,VisibilityMPH,Wind Direction,Wind SpeedMPH,Gust SpeedMPH,PrecipitationIn,Events,Conditions,WindDirDegrees,DateUTC
12:14 AM,14.0,12.2,93,29.98,10.0,South,5.8,-,N/A,,Scattered Clouds,180,2013-12-18 06:14:00
12:34 AM,14.0,12.2,93,29.97,10.0,South,5.8,-,N/A,,Clear,190,2013-12-18 06:34:00
12:54 AM,14.0,12.2,93,29.96,10.0,South,6.9,-,N/A,,Clear,190,2013-12-18 06:54:00
1:14 AM,15.8,14.0,93,29.94,10.0,South,9.2,-,N/A,,Clear,190,2013-12-18 07:14:00
1:34 AM,15.8,12.2,86,29.93,10.0,South,8.1,-,N/A,,Clear,190,2013-12-18 07:34:00
1:54 AM,17.6,14.0,86,29.91,10.0,South,9.2,-,N/A,,Clear,180,2013-12-18 07:54:00
2:14 AM,14.0,10.4,86,29.90,10.0,SSE,10.4,-,N/A,,Clear,160,2013-12-18 08:14:00
2:34 AM,15.8,12.2,86,29.89,10.0,South,10.4,-,N/A,,Clear,170,2013-12-18 08:34:00
2:54 AM,17.6,14.0,86,29.87,10.0,South,11.5,-,N/A,,Clear,170,2013-12-18 08:54:00
3:14 AM,19.4,15.8,86,29.85,10.0,South,12.7,-,N/A,,Clear,180,2013-12-18 09:14:00
3:34 AM,19.4,15.8,86,29.83,10.0,South,12.7,-,N/A,,Clear,180,2013-12-18 09:34:00
3:54 AM,21.2,15.8,80,29.81,10.0,South,12.7,18.4,N/A,,Clear,180,2013-12-18 09:54:00
4:14 AM,24.8,15.8,69,29.79,10.0,South,12.7,17.3,N/A,,Clear,180,2013-12-18 10:14:00
4:34 AM,24.8,15.8,69,29.77,10.0,South,17.3,23.0,N/A,,Clear,180,2013-12-18 10:34:00
4:54 AM,26.6,15.8,64,29.76,10.0,SSW,10.4,17.3,N/A,,Clear,210,2013-12-18 10:54:00
5:14 AM,26.6,15.8,64,29.75,10.0,SSW,12.7,20.7,N/A,,Clear,200,2013-12-18 11:14:00
5:33 AM,26.6,15.8,64,29.73,10.0,South,12.7,19.6,N/A,,Clear,190,2013-12-18 11:33:00
5:54 AM,24.8,15.8,69,29.72,10.0,South,10.4,16.1,N/A,,Clear,190,2013-12-18 11:54:00
6:14 AM,24.8,15.8,69,29.71,10.0,South,10.4,-,N/A,,Clear,190,2013-12-18 12:14:00
6:34 AM,23.0,15.8,74,29.69,10.0,SSW,11.5,-,N/A,,Clear,200,2013-12-18 12:34:00
6:54 AM,21.2,15.8,80,29.69,10.0,SSW,8.1,-,N/A,,Clear,200,2013-12-18 12:54:00
7:14 AM,21.2,15.8,80,29.67,10.0,SSW,9.2,-,N/A,,Clear,200,2013-12-18 13:14:00
7:34 AM,21.2,15.8,80,29.66,10.0,SSW,9.2,-,N/A,,Clear,200,2013-12-18 13:34:00
7:54 AM,21.2,15.8,80,29.63,10.0,SSW,9.2,-,N/A,,Clear,200,2013-12-18 13:54:00
8:14 AM,21.2,17.6,86,29.63,10.0,SSW,8.1,-,N/A,,Clear,210,2013-12-18 14:14:00
8:34 AM,21.2,17.6,86,29.67,10.0,ENE,4.6,-,N/A,,Clear,60,2013-12-18 14:34:00
8:54 AM,23.0,17.6,80,29.66,10.0,ESE,3.5,-,N/A,,Clear,120,2013-12-18 14:54:00
9:14 AM,24.8,17.6,74,29.66,10.0,SSE,4.6,-,N/A,,Clear,160,2013-12-18 15:14:00
9:34 AM,24.8,17.6,74,29.65,10.0,SSW,5.8,-,N/A,,Clear,210,2013-12-18 15:34:00
9:54 AM,28.4,19.4,69,29.66,10.0,Calm,Calm,-,N/A,,Clear,0,2013-12-18 15:54:00
10:14 AM,30.2,19.4,64,29.66,10.0,South,4.6,-,N/A,,Clear,170,2013-12-18 16:14:00
10:34 AM,30.2,21.2,69,29.67,10.0,South,3.5,-,N/A,,Clear,190,2013-12-18 16:34:00
10:54 AM,32.0,21.2,64,29.67,10.0,SW,3.5,-,N/A,,Clear,220,2013-12-18 16:54:00
11:14 AM,37.4,26.6,65,29.65,10.0,WNW,4.6,-,N/A,,Clear,300,2013-12-18 17:14:00
11:34 AM,37.4,24.8,60,29.65,10.0,WNW,5.8,-,N/A,,Clear,300,2013-12-18 17:34:00
11:54 AM,35.6,23.0,60,29.65,10.0,West,5.8,-,N/A,,Clear,270,2013-12-18 17:54:00
12:14 PM,37.4,24.8,60,29.64,10.0,West,8.1,-,N/A,,Clear,260,2013-12-18 18:14:00
12:34 PM,37.4,24.8,60,29.64,10.0,West,9.2,-,N/A,,Clear,260,2013-12-18 18:34:00
12:54 PM,39.2,26.6,61,29.65,10.0,West,6.9,-,N/A,,Clear,280,2013-12-18 18:54:00
1:14 PM,39.2,28.4,65,29.64,10.0,WNW,4.6,-,N/A,,Clear,300,2013-12-18 19:14:00
1:34 PM,42.8,28.4,57,29.63,10.0,West,6.9,-,N/A,,Clear,280,2013-12-18 19:34:00
1:54 PM,42.8,28.4,57,29.63,10.0,West,6.9,-,N/A,,Clear,280,2013-12-18 19:54:00
2:14 PM,42.8,30.2,61,29.64,10.0,WNW,3.5,-,N/A,,Clear,290,2013-12-18 20:14:00
2:34 PM,42.8,28.4,57,29.63,10.0,West,4.6,-,N/A,,Clear,280,2013-12-18 20:34:00
2:54 PM,42.8,28.4,57,29.63,10.0,West,4.6,-,N/A,,Clear,270,2013-12-18 20:54:00
3:14 PM,39.2,28.4,65,29.64,10.0,WNW,3.5,-,N/A,,Clear,290,2013-12-18 21:14:00
3:34 PM,39.2,28.4,65,29.64,10.0,WNW,3.5,-,N/A,,Clear,290,2013-12-18 21:34:00
3:54 PM,39.2,28.4,65,29.65,10.0,WNW,3.5,-,N/A,,Clear,300,2013-12-18 21:54:00
4:14 PM,37.4,28.4,70,29.65,10.0,Calm,Calm,-,N/A,,Clear,0,2013-12-18 22:14:00
4:34 PM,37.4,26.6,65,29.65,10.0,West,4.6,-,N/A,,Clear,270,2013-12-18 22:34:00
4:54 PM,35.6,26.6,70,29.66,10.0,West,3.5,-,N/A,,Clear,270,2013-12-18 22:54:00
5:14 PM,35.6,26.6,70,29.67,10.0,West,5.8,-,N/A,,Clear,270,2013-12-18 23:14:00
5:34 PM,35.6,26.6,70,29.67,10.0,West,4.6,-,N/A,,Clear,280,2013-12-18 23:34:00
5:53 PM,33.8,26.6,75,29.69,10.0,West,4.6,-,N/A,,Clear,270,2013-12-18 23:53:00
6:14 PM,33.8,26.6,75,29.69,10.0,West,5.8,-,N/A,,Clear,270,2013-12-19 00:14:00
6:34 PM,33.8,26.6,75,29.70,10.0,WNW,4.6,-,N/A,,Clear,290,2013-12-19 00:34:00
6:54 PM,33.8,26.6,75,29.70,10.0,West,5.8,-,N/A,,Clear,280,2013-12-19 00:54:00
7:14 PM,33.8,26.6,75,29.71,10.0,WNW,5.8,-,N/A,,Clear,290,2013-12-19 01:14:00
7:34 PM,33.8,26.6,75,29.71,10.0,WNW,4.6,-,N/A,,Clear,290,2013-12-19 01:34:00
7:54 PM,33.8,26.6,75,29.72,10.0,NW,5.8,-,N/A,,Clear,310,2013-12-19 01:54:00
8:14 PM,33.8,26.6,75,29.74,10.0,NW,5.8,-,N/A,,Clear,310,2013-12-19 02:14:00
8:34 PM,32.0,26.6,80,29.75,10.0,NNW,6.9,-,N/A,,Clear,330,2013-12-19 02:34:00
8:54 PM,30.2,24.8,80,29.77,10.0,North,9.2,-,N/A,,Clear,360,2013-12-19 02:54:00
9:14 PM,30.2,24.8,80,29.79,10.0,North,16.1,-,N/A,,Clear,360,2013-12-19 03:14:00
9:34 PM,28.4,23.0,80,29.80,10.0,North,16.1,20.7,N/A,,Clear,10,2013-12-19 03:34:00
9:54 PM,26.6,21.2,80,29.82,10.0,North,16.1,24.2,N/A,,Clear,10,2013-12-19 03:54:00
10:14 PM,24.8,19.4,80,29.83,10.0,North,15.0,-,N/A,,Clear,10,2013-12-19 04:14:00
10:34 PM,21.2,17.6,86,29.85,10.0,North,19.6,-,N/A,,Clear,360,2013-12-19 04:34:00
10:54 PM,19.4,15.8,86,29.86,10.0,North,15.0,-,N/A,,Clear,360,2013-12-19 04:54:00
11:14 PM,17.6,12.2,79,29.88,10.0,North,13.8,21.9,N/A,,Clear,10,2013-12-19 05:14:00
11:34 PM,15.8,12.2,86,29.89,10.0,North,12.7,17.3,N/A,,Clear,10,2013-12-19 05:34:00
11:53 PM,15.8,10.4,79,29.90,10.0,North,16.1,23.0,N/A,,Clear,360,2013-12-19 05:53:00